This is the latest recevied weather packets stored in our database for station/object SR3WXA. If no packets are shown the sender has not sent any weather packets the latest 10 day(s).
| Time | Temp. | Humidity | Pressure | Rain* | Wind** | Luminosity | Snow |
|---|---|---|---|---|---|---|---|
| 1777883774 | 20.56° C | 56% | 1013.8 hPa | 0 mm | - | 325 W/m² | - |
| 1777883511 | 20.56° C | 56% | 1013.7 hPa | 0 mm | - | 292 W/m² | - |
| 1777883474 | 20.56° C | 56% | 1013.7 hPa | 0 mm | - | 292 W/m² | - |
| 1777883174 | 20.56° C | 55% | 1013.7 hPa | 0 mm | - | 243 W/m² | - |
| 1777882906 | 20.56° C | 55% | 1013.5 hPa | 0 mm | - | 221 W/m² | - |
| 1777882875 | 20.56° C | 55% | 1013.5 hPa | 0 mm | - | 221 W/m² | - |
| 1777882623 | 20.56° C | 56% | 1013.4 hPa | 0 mm | - | 165 W/m² | - |
| 1777882575 | 20.56° C | 56% | 1013.4 hPa | 0 mm | - | 165 W/m² | - |
| 1777882330 | 20° C | 55% | 1013.3 hPa | 0 mm | - | 213 W/m² | - |
| 1777882274 | 20° C | 55% | 1013.3 hPa | 0 mm | - | 213 W/m² | - |
| 1777882006 | 20° C | 54% | 1013.5 hPa | 0 mm | - | 243 W/m² | - |
| 1777881974 | 20° C | 54% | 1013.5 hPa | 0 mm | - | 243 W/m² | - |
| 1777881262 | 20° C | 54% | 1013.4 hPa | 0 mm | - | 209 W/m² | - |
| 1777880996 | 20° C | 53% | 1013.3 hPa | 0 mm | - | 144 W/m² | - |
| 1777880962 | 20° C | 53% | 1013.3 hPa | 0 mm | - | 144 W/m² | - |
| 1777880662 | 20° C | 53% | 1013.2 hPa | 0 mm | - | 148 W/m² | - |
| 1777880362 | 20° C | 54% | 1013 hPa | 0 mm | - | 91 W/m² | - |
| 1777880094 | 20° C | 54% | 1013.1 hPa | 0 mm | - | 111 W/m² | - |
| 1777880063 | 20° C | 54% | 1013.1 hPa | 0 mm | - | 111 W/m² | - |
| 1777879795 | 19.44° C | 54% | 1013.1 hPa | 0 mm | - | 257 W/m² | - |
| 1777879762 | 19.44° C | 54% | 1013.1 hPa | 0 mm | - | 257 W/m² | - |
| 1777879462 | 19.44° C | 54% | 1013 hPa | 0 mm | - | 239 W/m² | - |
| 1777879194 | 19.44° C | 54% | 1013.1 hPa | 0 mm | - | 264 W/m² | - |
| 1777879162 | 19.44° C | 54% | 1013.1 hPa | 0 mm | - | 264 W/m² | - |
| 1777878862 | 19.44° C | 54% | 1013.1 hPa | 0 mm | - | 213 W/m² | - |
* Rain latest hour (hover to see other rain measurements)
** Current wind speed in m/s (hover to see current wind gust speed)